Regional Weather Roundup
Issued by NWS

Home | Current Version | Previous Version | Graphics & Text | Print | Product List | Glossary Off
Versions: 1 2 3 4 5 6 7 8 9 10 11 12 13 14 15 16 17 18 19 20 21 22 23 24 25 26 27 28 29 30 31 32 33 34 35 36 37 38 39 40 41 42 43 44 45 46 47 48 49 50

000
ASUS43 KMKX 312000
RWRWI

WISCONSIN REGIONAL WEATHER ROUNDUP
NATIONAL WEATHER SERVICE MILWAUKEE/SULLIVAN WI
300 PM CDT WED AUG 31 2016

NOTE: "FAIR" INDICATES FEW OR NO CLOUDS BELOW 12,000 FEET WITH NO
SIGNIFICANT WEATHER AND/OR OBSTRUCTIONS TO VISIBILITY.

WIZ001-002-006>008-014>016-023>028-312100-
NORTHWEST WISCONSIN

CITY           SKY/WX    TMP DP  RH WIND       PRES   REMARKS
SUPERIOR ARPT  MOSUNNY   75  51  43 N7        30.18F
ASHLAND        CLOUDY    74  56  53 N8        30.19F
HAYWARD        PTSUNNY   74  51  44 N9        30.19F
SIREN          SUNNY     74  47  38 N9        30.20S
CUMBERLAND     SUNNY     72  48  43 N8        30.20S
RICE LAKE      SUNNY     74  51  43 N8        30.20F
CHETEK         NOT AVBL
LADYSMITH      MOSUNNY   74  50  43 N3        30.19F
EAU CLAIRE     NOT AVBL
MENOMONIE      SUNNY     77  50  38 N7        30.17F
NEW RICHMOND   SUNNY     75  50  41 N7        30.20S
OSCEOLA        SUNNY     74  51  42 N6        30.22F
$$

WIZ003>005-009-010-017-018-312100-
NORTH CENTRAL WISCONSIN

CITY           SKY/WX    TMP DP  RH WIND       PRES   REMARKS
MANITOWISH WTR NOT AVBL
ARBOR VITAE    MOSUNNY   72  54  53 N12G20    30.19S
WOODRUFF       MOSUNNY   72  54  53 N12G20    30.19S
RHINELANDER    CLOUDY    71  56  58 N9        30.18S
EAGLE RIVER    PTSUNNY   69  52  53 N8        30.18S
LAND O LAKES   CLOUDY    69  51  53 N13       30.19S
PHILLIPS       MOSUNNY   70  54  56 NW7       30.17F
TOMAHAWK       PTSUNNY   69  51  52 N8        30.18S
MEDFORD        MOSUNNY   72  53  50 N8        30.17S
MERRILL        PTSUNNY   73  54  50 NE8       30.17S
$$

WIZ029-030-035-036-043>047-312100-
CENTRAL WISCONSIN

CITY           SKY/WX    TMP DP  RH WIND       PRES   REMARKS
WAUSAU         PTSUNNY   72  50  45 N12       30.13F
MOSINEE        MOSUNNY   72  54  53 NW9G16    30.16
MARSHFIELD     MOSUNNY   77  51  40 N8        30.15F
STEVENS POINT  PTSUNNY   73  51  46 N12G17    30.14F
WAUPACA        PTSUNNY   79  50  36 N8        30.13S
WAUTOMA        PTSUNNY   77  55  46 N8        30.12F
WISC RAPIDS    PTSUNNY   78  53  41 NW10G17   30.15F
CAMP DOUGLAS   NOT AVBL
$$

WIZ011>013-019>022-031-037>040-048>050-312100-
NORTHEAST WISCONSIN

CITY           SKY/WX    TMP DP  RH WIND       PRES   REMARKS
ANTIGO         PTSUNNY   72  52  49 N7        30.16F
SHAWANO        PTSUNNY   74  53  49 N8        30.12F
OCONTO         NOT AVBL
STURGEON BAY   MOSUNNY   73  53  49 N7        30.12F
GREEN BAY      PTSUNNY   72  57  59 NE9       30.11F
MANITOWOC      NOT AVBL
APPLETON       PTSUNNY   73  50  43 N10G17    30.11F
CLINTONVILLE   PTSUNNY   77  50  38 N9        30.11F
OSHKOSH        PTSUNNY   75  53  46 NE8       30.11S
$$

WIZ032>034-041-042-053>061-312100-
SOUTHWEST WISCONSIN

CITY           SKY/WX    TMP DP  RH WIND       PRES   REMARKS
LA CROSSE      SUNNY     79  53  40 N6        30.14F
SPARTA         SUNNY     76  53  44 N9G16     30.15F
VIROQUA        SUNNY     75  55  50 N7        30.16F
BOSCOBEL       SUNNY     81  54  39 VRB5      30.13F HX  81
PRAIRIE DU CHI SUNNY     76  51  40 NW9       30.13F
PLATTEVILLE    SUNNY     75  56  53 NE8       30.14F
$$

WIZ056-057-062-063-064-067-068-312100-
SOUTH CENTRAL WISCONSIN

CITY           SKY/WX    TMP DP  RH WIND       PRES   REMARKS
REEDSBURG      NOT AVBL
BARABOO/DELLS  SUNNY     75  51  41 NW5G18    30.13F
LONE ROCK      NOT AVBL
MINERAL POINT  SUNNY     75  48  38 N8        30.14F
MADISON        MOSUNNY   76  53  44 N10       30.12S
MIDDLETON      SUNNY     77  53  43 N7        30.13S
WATERTOWN      SUNNY     74  55  50 N6G18     30.11S
MONROE         SUNNY     73  54  49 N12G17    30.12F
JANESVILLE     MOSUNNY   77  55  47 VRB8      30.10S
$$

WIZ051-052-058>065-066-070>072-312100-
SOUTHEAST WISCONSIN

CITY           SKY/WX    TMP DP  RH WIND       PRES   REMARKS
MILWAUKEE      MOSUNNY   73  55  53 NE12      30.11F
WAUKESHA       MOSUNNY   73  52  46 N7        30.11F
MILWAUKEE/TIMM SUNNY     73  50  43 NE8       30.11S
RACINE         SUNNY     73  55  53 NE13G21   30.11F
BURLINGTON     PTSUNNY   74  53  48 E10       30.09F
KENOSHA        SUNNY     74  53  48 NE13G21   30.10F
FOND DU LAC    SUNNY     75  53  46 NE13      30.12S
SHEBOYGAN      MOSUNNY   74  54  49 NE10      30.11S
WEST BEND      SUNNY     73  50  43 NE8       30.10S
JUNEAU         SUNNY     73  53  48 N8        30.13S
$$

LSZ147-162-312100-
LAKE SUPERIOR

STATION/POSITION TIME  TEMP    WIND        PRES    WAVE
                       AIR SEA DIR/SP/G            HT/PER
                 (UTC) (F)     (DEG/KT/KT) (MB)    (FT/S)
W MID LAKE BUOY  1850   66 68  310/  4/  6 1021.8R   1/ 4
DEVILS ISLAND    1900   67     270/  3/  5 1022.5F
PORT WING        1900   70     350/  3/  5 1022.7S
SAXON HARBOR     1900   69      30/  8/  8 1022.4
$$

LMZ867-665-643>646-312100-
LAKE MICHIGAN

STATION/POSITION TIME  TEMP    WIND        PRES    WAVE
                       AIR SEA DIR/SP/G            HT/PER
                 (UTC) (F)     (DEG/KT/KT) (MB)    (FT/S)
CHAMBERS ISLAND  1940   73     360/ 10/ 13 1019.3S
S GREEN BAY BUOY 1900   69 73  110/  4/  4 1019.4F
N MID LAKE BUOY  1850   70 71  330/ 14/ 17 1018.5S   1/ 3
NORTHPORT PIER   1900   71     350/ 11/ 12 1019.3S
SISTER BAY       1907   75     350/ 12/ 14   N/A
ALGOMA LAKESHORE 1815          350/  4/  6   N/A
KEWAUNEE LAKESHO 1900   71      80/  5/  7 1019.4R
SHEBOYGAN LAKESH 1900   66      40/ 10/ 10 1019.3S
PORT WASHINGTON  1900   69      50/  4/  6 1020.3
ATWATER BUOY     1900   68      50/ 14/ 17   N/A
MILWAUKEE LAKESH 1910   67      40/ 10/ 11   N/A
S MID LAKE BUOY  1850   71 75   10/ 19/ 23 1017.5F   5/ 6
KENOSHA   LAKESH 1900   68      20/ 16/ 18 1019.0S
$$

TC  - TEMPERATURE IN CELSIUS
VSB - VISIBILITY IN STATUTE MILES
WCI - WIND CHILL INDEX
HX  - HEAT INDEX





USA.gov is the U.S. government's official web portal to all federal, state and local government web resources and services.